Group_ship,Cruise,JD_GMT,Date_DDMMYYYY,TIME_HH:MM:SS,Lat_dec_degree,Long_dec_degree,xCO2eq_ppm,xCO2a_ppm,Pres_Equi_hPa,Pres_sealevel_hPa,EqTemp_C,SST(TSG)_C,Sal(TSG)_Permil,Water_flow_l/min,Gasflow_IR_ml/min,Temp_IR_C,Pres_IR_hPa,Ship_heading_true_degree,Ship_speed_knot,Wind_dir_rel_degree,Wind_speed_rel_m/s,fCO2W@SST_uatm,Qcflag_water,fCO2a_uatm,Qcflag_air,dfCO2_uatm,Fluoro_ug/l,Wind_speed_true_m/s,Wind_dir_true_degree,Air_temp_C,Oxygen
AOML_Explorer,Ex0725N,168.980,17062007,23:31:52,40.271,-73.626,408.62,-9.00,1010.68,1009.20,18.07,17.68,31.162,3.398,102.161,31.679,1010.681,139.200,17.800,40.000,11.052,391.75,2,-9.00,9,-9.00,0.16,11.05,210.66,22.76,274.57
AOML_Explorer,Ex0725N,168.982,17062007,23:34:25,40.262,-73.615,410.54,-9.00,1010.49,1009.10,18.13,18.00,31.060,3.393,102.777,31.682,1010.494,136.200,17.900,42.000,12.643,397.68,2,-9.00,9,-9.00,0.16,12.64,206.37,22.96,273.12
AOML_Explorer,Ex0725N,168.984,17062007,23:36:58,40.253,-73.603,415.15,-9.00,1010.65,1009.20,18.14,18.04,31.174,3.336,102.290,31.681,1010.652,135.100,18.000,41.000,12.531,402.58,2,-9.00,9,-9.00,0.15,12.53,204.70,22.52,272.52
AOML_Explorer,Ex0725N,168.986,17062007,23:39:31,40.244,-73.591,418.94,-9.00,1010.55,1009.10,18.35,18.11,31.234,3.366,103.460,31.680,1010.552,134.100,17.900,44.000,12.514,403.83,2,-9.00,9,-9.00,0.15,12.51,208.18,22.5,273.59
AOML_Explorer,Ex0725N,168.988,17062007,23:42:04,40.235,-73.579,421.62,-9.00,1010.58,1009.10,18.52,18.09,31.189,3.348,103.589,31.678,1010.578,134.300,18.100,42.000,12.215,403.07,2,-9.00,9,-9.00,0.16,12.22,206.19,22.28,274.10
AOML_Explorer,Ex0725N,168.989,17062007,23:44:37,40.226,-73.568,423.37,-9.00,1010.65,1009.20,18.46,18.00,31.193,3.382,102.463,31.677,1010.652,134.000,18.100,45.000,13.162,404.50,2,-9.00,9,-9.00,0.16,13.16,208.66,22.46,274.07
AOML_Explorer,Ex0725N,168.991,17062007,23:47:10,40.217,-73.556,422.90,-9.00,1010.73,1009.10,18.37,17.75,31.265,3.354,103.241,31.679,1010.729,134.100,18.100,46.000,12.843,401.40,2,-9.00,9,-9.00,0.20,12.84,211.00,22.26,273.98
AOML_Explorer,Ex0725N,168.993,17062007,23:49:43,40.208,-73.544,421.31,-9.00,1010.72,1009.10,18.27,17.83,31.182,3.363,103.156,31.675,1010.717,134.200,18.200,45.000,12.681,402.94,2,-9.00,9,-9.00,0.15,12.68,210.17,22.33,273.76
AOML_Explorer,Ex0725N,168.995,17062007,23:52:16,40.199,-73.532,417.65,-9.00,1010.74,1009.10,18.10,18.02,31.221,3.358,102.745,31.676,1010.741,134.400,18.200,43.000,12.355,405.49,2,-9.00,9,-9.00,0.14,12.36,207.82,22.27,273.74
AOML_Explorer,Ex0725N,168.996,17062007,23:54:49,40.190,-73.520,415.79,-9.00,1010.80,1009.10,18.24,17.67,31.437,3.339,103.423,31.676,1010.798,134.700,18.200,45.000,12.631,395.52,2,-9.00,9,-9.00,0.13,12.63,210.36,22.16,274.14
AOML_Explorer,Ex0725N,168.998,17062007,23:57:22,40.181,-73.508,418.15,-9.00,1010.78,1009.10,18.30,17.83,31.308,3.369,102.771,31.673,1010.782,134.600,18.300,45.000,12.585,399.44,2,-9.00,9,-9.00,0.13,12.58,210.43,22.16,274.13
AOML_Explorer,Ex0725N,169.000,17062007,23:59:55,40.172,-73.495,414.95,-9.00,1010.83,1009.20,18.25,17.91,31.295,3.352,102.965,31.672,1010.829,134.500,18.400,44.000,12.002,398.50,2,-9.00,9,-9.00,0.14,12.00,210.73,21.96,274.29
AOML_Explorer,Ex0725N,169.015,18062007,0:21:40,40.092,-73.391,420.77,-9.00,1010.98,1009.40,18.66,18.28,31.381,2.869,103.023,31.743,1010.981,134.900,18.800,48.000,13.065,403.28,2,-9.00,9,-9.00,0.16,13.07,215.07,21.34,275.26
AOML_Explorer,Ex0725N,169.017,18062007,0:24:13,40.082,-73.379,423.87,-9.00,1010.87,1009.60,18.69,18.64,31.289,2.835,102.787,31.754,1010.869,135.700,18.900,50.000,13.443,411.73,2,-9.00,9,-9.00,0.14,13.44,218.79,21.37,274.84
AOML_Explorer,Ex0725N,169.019,18062007,0:26:46,40.073,-73.367,425.01,-9.00,1010.84,1009.50,18.75,18.09,31.396,2.846,103.203,31.758,1010.835,136.000,18.900,50.000,13.461,402.46,2,-9.00,9,-9.00,0.16,13.46,219.16,21.3,275.07
AOML_Explorer,Ex0725N,169.020,18062007,0:29:19,40.063,-73.355,428.06,-9.00,1010.88,1009.50,18.71,18.21,31.332,2.794,103.253,31.760,1010.876,136.400,18.900,51.000,13.634,408.25,2,-9.00,9,-9.00,0.15,13.63,220.57,21.4,275.08
AOML_Explorer,Ex0725N,169.022,18062007,0:31:52,40.054,-73.342,428.59,-9.00,1010.83,1009.40,18.48,18.49,31.263,2.764,103.069,31.768,1010.825,136.200,19.000,49.000,13.317,417.39,2,-9.00,9,-9.00,0.17,13.32,218.37,21.59,273.77
AOML_Explorer,Ex0725N,169.024,18062007,0:34:25,40.044,-73.330,428.03,-9.00,1010.86,1009.50,18.61,18.10,31.205,2.784,103.103,31.773,1010.859,135.900,19.000,51.000,13.253,408.03,2,-9.00,9,-9.00,0.18,13.25,221.67,21.38,275.28
AOML_Explorer,Ex0725N,169.026,18062007,0:36:58,40.034,-73.318,431.62,-9.00,1010.84,1009.40,18.69,18.30,30.995,2.784,104.103,31.773,1010.842,135.900,19.000,51.000,13.659,413.32,2,-9.00,9,-9.00,0.18,13.66,220.36,21.11,276.47
AOML_Explorer,Ex0725N,169.027,18062007,0:39:31,40.025,-73.306,429.88,-9.00,1010.88,1009.50,18.55,18.23,31.043,2.778,102.958,31.777,1010.876,136.100,19.000,51.000,13.646,413.06,2,-9.00,9,-9.00,0.23,13.65,220.52,21.04,277.03
AOML_Explorer,Ex0725N,169.029,18062007,0:42:04,40.015,-73.294,428.96,-9.00,1011.12,1009.40,18.66,18.24,30.974,2.743,103.272,31.778,1011.121,136.300,19.000,54.000,14.132,410.59,2,-9.00,9,-9.00,0.23,14.13,223.78,21.01,277.58
AOML_Explorer,Ex0725N,169.031,18062007,0:44:37,40.005,-73.282,425.25,-9.00,1011.23,1009.50,18.58,18.14,30.985,2.769,103.111,31.777,1011.231,136.500,19.000,47.000,13.375,406.75,2,-9.00,9,-9.00,0.24,13.38,215.01,21,277.50
AOML_Explorer,Ex0725N,169.033,18062007,0:47:10,39.996,-73.270,421.00,-9.00,1010.95,1009.50,18.60,18.32,30.934,2.732,103.362,31.776,1010.952,136.400,19.000,50.000,13.406,405.17,2,-9.00,9,-9.00,0.22,13.41,219.24,20.86,276.58
AOML_Explorer,Ex0725N,169.035,18062007,0:49:43,39.986,-73.258,422.61,-9.00,1010.95,1009.60,18.57,18.38,30.921,2.752,103.355,31.771,1010.951,136.900,19.000,48.000,12.602,408.23,2,-9.00,9,-9.00,0.20,12.60,218.51,20.81,275.51
AOML_Explorer,Ex0725N,169.036,18062007,0:52:16,39.976,-73.246,425.16,-9.00,1011.07,1009.50,18.63,18.37,30.977,2.725,103.442,31.770,1011.070,136.900,19.100,47.000,12.871,409.70,2,-9.00,9,-9.00,0.19,12.87,216.25,20.79,274.47
AOML_Explorer,Ex0725N,169.038,18062007,0:54:49,39.966,-73.234,430.21,-9.00,1011.21,1009.60,18.69,18.15,31.024,2.739,103.112,31.772,1011.211,137.000,19.100,51.000,13.088,409.67,2,-9.00,9,-9.00,0.18,13.09,221.90,20.77,274.21
AOML_Explorer,Ex0725N,169.040,18062007,0:57:22,39.957,-73.222,433.53,-9.00,1011.15,1009.60,18.58,18.46,30.995,2.709,103.669,31.772,1011.154,136.800,19.100,50.000,12.538,420.07,2,-9.00,9,-9.00,0.17,12.54,222.41,20.73,273.36
AOML_Explorer,Ex0725N,169.042,18062007,0:59:55,39.947,-73.210,435.73,-9.00,1011.36,1009.60,18.62,18.45,31.075,2.725,103.425,31.769,1011.356,138.300,19.100,49.000,12.424,421.49,2,-9.00,9,-9.00,0.16,12.42,223.09,20.69,272.60
AOML_Explorer,Ex0725N,169.057,18062007,1:21:40,39.861,-73.111,405.98,-9.00,1011.40,1009.90,18.59,18.38,31.114,2.693,103.172,31.824,1011.400,136.100,19.300,51.000,12.680,391.92,2,-9.00,9,-9.00,0.26,12.68,222.99,20.25,273.65
AOML_Explorer,Ex0725N,169.058,18062007,1:24:13,39.851,-73.099,411.43,-9.00,1011.49,1009.80,18.61,18.36,31.182,2.692,103.379,31.824,1011.491,136.700,19.300,54.000,13.221,396.53,2,-9.00,9,-9.00,0.21,13.22,226.76,20.23,272.85
AOML_Explorer,Ex0725N,169.060,18062007,1:26:46,39.841,-73.086,420.38,-9.00,1011.56,1009.90,18.67,18.33,31.251,2.691,102.959,31.823,1011.556,136.800,19.300,54.000,13.254,403.81,2,-9.00,9,-9.00,0.21,13.25,226.76,20.28,272.70
AOML_Explorer,Ex0725N,169.062,18062007,1:29:19,39.831,-73.074,431.25,-9.00,1011.44,1009.90,18.64,18.23,31.388,2.695,102.888,31.819,1011.442,136.600,19.200,55.000,13.433,413.04,2,-9.00,9,-9.00,0.22,13.43,227.56,20.43,271.79
AOML_Explorer,Ex0725N,169.064,18062007,1:31:52,39.821,-73.062,434.21,-9.00,1011.51,1010.00,18.62,18.19,31.449,2.697,103.223,31.815,1011.511,136.500,19.100,51.000,12.327,415.53,2,-9.00,9,-9.00,0.22,12.33,224.65,20.36,271.89
AOML_Explorer,Ex0725N,169.066,18062007,1:34:25,39.812,-73.050,432.49,-9.00,1011.61,1010.10,18.56,18.05,31.466,2.723,102.864,31.814,1011.614,135.500,19.100,54.000,12.849,412.55,2,-9.00,9,-9.00,0.23,12.85,226.75,20.37,272.57
AOML_Explorer,Ex0725N,169.067,18062007,1:36:58,39.802,-73.038,431.38,-9.00,1011.65,1010.10,18.49,17.83,31.520,2.681,103.209,31.809,1011.652,135.000,19.100,54.000,12.931,409.23,2,-9.00,9,-9.00,0.29,12.93,226.68,20.38,273.48
AOML_Explorer,Ex0725N,169.069,18062007,1:39:31,39.793,-73.026,430.91,-9.00,1011.67,1010.10,18.33,17.43,31.593,2.674,103.034,31.802,1011.671,134.800,19.100,54.000,12.890,404.60,2,-9.00,9,-9.00,0.33,12.89,226.69,20.24,276.24
AOML_Explorer,Ex0725N,169.071,18062007,1:42:04,39.783,-73.013,429.01,-9.00,1011.76,1010.20,18.04,17.71,31.476,2.676,103.281,31.795,1011.765,135.700,19.300,57.000,13.802,412.67,2,-9.00,9,-9.00,0.23,13.80,228.78,20.2,272.72
AOML_Explorer,Ex0725N,169.073,18062007,1:44:37,39.774,-73.001,423.39,-9.00,1012.01,1010.10,17.92,17.71,31.560,2.666,103.535,31.792,1012.008,135.500,19.200,57.000,13.770,409.52,2,-9.00,9,-9.00,0.28,13.77,228.63,20.15,274.60
AOML_Explorer,Ex0725N,169.074,18062007,1:47:10,39.764,-72.989,426.11,-9.00,1011.85,1010.10,18.06,17.50,31.557,2.645,103.403,31.785,1011.853,135.400,19.300,58.000,13.512,406.01,2,-9.00,9,-9.00,0.25,13.51,230.85,20.04,274.76
AOML_Explorer,Ex0725N,169.076,18062007,1:49:43,39.754,-72.976,424.70,-9.00,1011.80,1010.20,18.01,17.48,31.442,2.634,103.342,31.782,1011.804,135.400,19.300,54.000,12.813,405.20,2,-9.00,9,-9.00,0.22,12.81,227.07,19.97,272.93
AOML_Explorer,Ex0725N,169.078,18062007,1:52:16,39.744,-72.964,426.78,-9.00,1011.87,1010.20,17.90,17.42,31.520,2.673,103.448,31.774,1011.871,135.800,19.300,56.000,12.735,408.19,2,-9.00,9,-9.00,0.21,12.74,230.51,19.85,272.66
AOML_Explorer,Ex0725N,169.080,18062007,1:54:49,39.735,-72.952,430.16,-9.00,1011.85,1010.20,17.93,17.50,31.464,2.628,103.486,31.767,1011.854,136.100,19.200,56.000,13.525,412.19,2,-9.00,9,-9.00,0.20,13.52,228.26,19.78,272.03
AOML_Explorer,Ex0725N,169.082,18062007,1:57:22,39.725,-72.939,430.66,-9.00,1012.02,1010.30,17.81,17.50,31.589,2.622,103.745,31.759,1012.019,135.900,19.100,58.000,13.416,414.81,2,-9.00,9,-9.00,0.19,13.42,230.61,19.59,271.63
AOML_Explorer,Ex0725N,169.083,18062007,1:59:55,39.715,-72.927,431.86,-9.00,1011.89,1010.30,17.91,17.38,31.760,2.658,103.236,31.757,1011.892,135.800,19.100,61.000,14.352,412.14,2,-9.00,9,-9.00,0.18,14.35,232.22,19.36,271.36
AOML_Explorer,Ex0725N,169.098,18062007,2:21:40,39.638,-72.818,420.35,-9.00,1012.37,1010.00,16.99,16.37,32.413,2.622,102.983,31.786,1012.374,118.500,19.300,70.000,13.639,400.27,2,-9.00,9,-9.00,0.13,13.64,231.58,18.99,273.56
AOML_Explorer,Ex0725N,169.100,18062007,2:24:13,39.632,-72.803,419.49,-9.00,1012.13,1010.00,16.93,15.69,32.659,2.602,103.105,31.788,1012.131,118.900,19.400,66.000,12.666,389.43,2,-9.00,9,-9.00,0.12,12.67,230.82,18.76,276.80
AOML_Explorer,Ex0725N,169.102,18062007,2:26:46,39.625,-72.787,415.49,-9.00,1012.27,1010.10,16.62,15.71,32.607,2.537,103.283,31.785,1012.274,118.900,19.500,71.000,13.474,391.06,2,-9.00,9,-9.00,0.12,13.47,234.48,18.66,277.53
AOML_Explorer,Ex0725N,169.104,18062007,2:29:19,39.618,-72.772,401.39,-9.00,1012.20,1010.10,16.33,15.74,32.636,2.500,103.050,31.784,1012.203,124.300,19.600,65.000,13.018,382.90,2,-9.00,9,-9.00,0.12,13.02,235.14,18.66,277.24
AOML_Explorer,Ex0725N,169.105,18062007,2:31:52,39.609,-72.758,394.01,-9.00,1012.58,1010.30,16.33,15.55,32.672,2.514,102.796,31.778,1012.578,132.900,19.600,61.000,13.437,373.06,2,-9.00,9,-9.00,0.13,13.44,235.78,18.7,278.51
AOML_Explorer,Ex0725N,169.107,18062007,2:34:25,39.599,-72.746,390.71,-9.00,1012.14,1010.40,16.25,15.71,32.605,2.382,103.045,31.773,1012.135,136.700,19.500,59.000,13.438,373.49,2,-9.00,9,-9.00,0.12,13.44,236.06,18.78,279.15
AOML_Explorer,Ex0725N,169.109,18062007,2:36:58,39.589,-72.734,386.59,-9.00,1012.10,1010.30,16.16,15.71,32.656,2.376,103.218,31.765,1012.104,136.900,19.600,63.000,14.473,370.98,2,-9.00,9,-9.00,0.12,14.47,238.22,18.73,279.50
AOML_Explorer,Ex0725N,169.111,18062007,2:39:31,39.579,-72.721,384.56,-9.00,1012.00,1010.30,16.24,15.66,32.652,2.359,103.415,31.761,1012.001,137.000,19.700,63.000,14.456,366.90,2,-9.00,9,-9.00,0.12,14.46,238.32,18.71,280.03
AOML_Explorer,Ex0725N,169.113,18062007,2:42:04,39.569,-72.709,384.29,-9.00,1012.06,1010.20,16.26,15.62,32.682,2.269,103.313,31.756,1012.058,136.800,19.700,65.000,15.214,365.87,2,-9.00,9,-9.00,0.14,15.21,238.82,18.7,280.46
AOML_Explorer,Ex0725N,169.114,18062007,2:44:37,39.558,-72.697,383.83,-9.00,1012.29,1010.10,16.24,15.47,32.664,2.086,103.288,31.750,1012.295,136.700,19.700,69.000,15.528,363.61,2,-9.00,9,-9.00,0.16,15.53,243.35,18.7,281.26
AOML_Explorer,Ex0725N,169.116,18062007,2:47:10,39.548,-72.685,383.73,-9.00,1012.01,1010.20,16.15,15.60,32.636,2.049,103.088,31.750,1012.006,136.400,19.700,66.000,14.960,366.64,2,-9.00,9,-9.00,0.16,14.96,240.28,18.66,281.37
AOML_Explorer,Ex0725N,169.118,18062007,2:49:43,39.538,-72.672,382.73,-9.00,1012.27,1010.00,16.13,15.64,32.654,1.971,103.351,31.745,1012.274,136.500,19.700,64.000,14.626,366.66,2,-9.00,9,-9.00,0.16,14.63,238.81,18.5,281.81
AOML_Explorer,Ex0725N,169.120,18062007,2:52:16,39.528,-72.660,382.36,-9.00,1012.03,1010.10,16.21,15.59,32.647,1.954,103.498,31.740,1012.031,136.000,19.500,67.000,15.160,364.43,2,-9.00,9,-9.00,0.17,15.16,240.66,18.41,282.38
AOML_Explorer,Ex0725N,169.121,18062007,2:54:49,39.518,-72.648,382.99,-9.00,1012.04,1010.30,16.22,15.64,32.650,1.834,103.318,31.740,1012.044,136.400,19.500,68.000,15.317,365.50,2,-9.00,9,-9.00,0.19,15.32,241.80,18.32,282.75
AOML_Explorer,Ex0725N,169.123,18062007,2:57:22,39.508,-72.635,382.19,-9.00,1012.15,1010.30,16.22,15.64,32.665,1.863,103.178,31.739,1012.145,136.100,19.600,67.000,15.167,364.80,2,-9.00,9,-9.00,0.19,15.17,240.76,18.29,283.28
AOML_Explorer,Ex0725N,169.125,18062007,2:59:55,39.498,-72.623,380.33,-9.00,1012.01,1010.10,16.24,15.68,32.675,1.878,103.316,31.742,1012.008,136.500,19.700,68.000,14.872,363.20,2,-9.00,9,-9.00,0.19,14.87,242.92,18.38,283.02
AOML_Explorer,Ex0725N,169.140,18062007,3:21:40,39.409,-72.518,373.31,-9.00,1012.20,1010.20,15.86,15.27,32.626,1.677,102.874,31.804,1012.197,138.200,20.200,67.000,14.973,356.25,2,-9.00,9,-9.00,0.19,14.97,242.41,17.92,282.44
AOML_Explorer,Ex0725N,169.142,18062007,3:24:13,39.399,-72.506,372.95,-9.00,1012.14,1010.10,15.91,15.22,32.652,1.698,103.275,31.809,1012.136,138.000,20.200,69.000,15.765,354.43,2,-9.00,9,-9.00,0.17,15.77,243.03,17.9,282.02
AOML_Explorer,Ex0725N,169.144,18062007,3:26:46,39.388,-72.494,373.59,-9.00,1012.12,1010.40,15.92,15.20,32.703,1.712,103.265,31.809,1012.118,138.000,20.200,68.000,15.131,354.68,2,-9.00,9,-9.00,0.17,15.13,243.07,17.93,281.84
AOML_Explorer,Ex0725N,169.145,18062007,3:29:19,39.378,-72.482,373.17,-9.00,1012.01,1010.40,15.90,15.36,32.626,1.600,103.032,31.809,1012.008,138.200,20.100,61.000,13.805,356.91,2,-9.00,9,-9.00,0.16,13.81,236.54,17.87,281.67
AOML_Explorer,Ex0725N,169.147,18062007,3:31:52,39.367,-72.469,372.57,-9.00,1012.07,1010.30,15.92,15.38,32.671,1.605,103.119,31.814,1012.074,138.200,19.900,66.000,14.747,356.41,2,-9.00,9,-9.00,0.17,14.75,240.85,17.81,281.59
AOML_Explorer,Ex0725N,169.149,18062007,3:34:25,39.357,-72.457,372.09,-9.00,1012.19,1010.40,16.02,15.48,32.648,1.611,103.424,31.813,1012.185,137.500,19.800,64.000,14.027,355.87,2,-9.00,9,-9.00,0.16,14.03,239.95,17.79,281.40
AOML_Explorer,Ex0725N,169.151,18062007,3:36:58,39.346,-72.446,372.26,-9.00,1012.19,1010.50,16.06,15.53,32.674,1.581,103.361,31.815,1012.189,140.800,19.500,62.000,15.034,356.22,2,-9.00,9,-9.00,0.16,15.03,237.97,17.79,280.82
AOML_Explorer,Ex0725N,169.152,18062007,3:39:31,39.336,-72.434,372.45,-9.00,1012.31,1010.50,16.12,15.56,32.709,1.597,103.187,31.812,1012.314,139.700,19.700,66.000,15.258,355.84,2,-9.00,9,-9.00,0.16,15.26,241.45,17.86,280.48
AOML_Explorer,Ex0725N,169.154,18062007,3:42:04,39.325,-72.423,372.68,-9.00,1012.43,1010.50,16.19,15.51,32.769,1.611,103.295,31.809,1012.432,140.000,19.700,64.000,15.352,354.36,2,-9.00,9,-9.00,0.15,15.35,239.07,17.86,280.11
AOML_Explorer,Ex0725N,169.156,18062007,3:44:37,39.315,-72.411,372.79,-9.00,1012.46,1010.30,16.23,15.60,32.704,1.600,103.263,31.809,1012.459,139.800,19.900,64.000,14.937,355.23,2,-9.00,9,-9.00,0.15,14.94,240.27,17.89,280.22
AOML_Explorer,Ex0725N,169.158,18062007,3:47:10,39.304,-72.400,372.94,-9.00,1012.47,1010.40,16.20,15.50,32.761,1.623,103.328,31.805,1012.474,139.900,19.900,64.000,15.334,354.34,2,-9.00,9,-9.00,0.15,15.33,239.11,17.94,279.87
AOML_Explorer,Ex0725N,169.160,18062007,3:49:43,39.293,-72.388,372.93,-9.00,1012.37,1010.30,16.24,15.32,32.634,1.591,103.332,31.805,1012.368,139.900,19.900,69.000,15.767,351.00,2,-9.00,9,-9.00,0.15,15.77,244.60,18.05,280.50
AOML_Explorer,Ex0725N,169.161,18062007,3:52:16,39.283,-72.376,373.46,-9.00,1012.31,1010.30,16.16,15.50,32.619,1.611,103.376,31.803,1012.306,136.100,19.800,68.000,14.728,355.32,2,-9.00,9,-9.00,0.16,14.73,241.93,17.9,280.06
AOML_Explorer,Ex0725N,169.163,18062007,3:54:49,39.273,-72.363,372.74,-9.00,1012.30,1010.40,16.02,15.46,32.657,1.610,103.350,31.796,1012.302,136.400,19.800,66.000,14.832,356.22,2,-9.00,9,-9.00,0.16,14.83,239.33,17.76,281.01
AOML_Explorer,Ex0725N,169.165,18062007,3:57:22,39.263,-72.351,372.14,-9.00,1012.41,1010.50,16.12,15.29,32.692,1.594,103.439,31.792,1012.414,136.300,19.900,66.000,15.241,351.62,2,-9.00,9,-9.00,0.16,15.24,238.12,17.73,280.39
AOML_Explorer,Ex0725N,169.167,18062007,3:59:55,39.253,-72.338,372.89,-9.00,1012.65,1010.50,16.10,15.39,32.654,1.602,103.436,31.790,1012.651,136.200,19.900,63.000,13.894,354.27,2,-9.00,9,-9.00,0.16,13.89,238.01,17.65,280.10
AOML_Explorer,Ex0725N,169.182,18062007,4:21:40,39.167,-72.231,376.49,-9.00,1012.39,1010.70,16.02,15.36,32.700,1.584,103.328,31.822,1012.386,134.700,20.100,63.000,14.778,358.31,2,-9.00,9,-9.00,0.14,14.78,234.91,17.08,278.82
AOML_Explorer,Ex0725N,169.183,18062007,4:24:13,39.157,-72.218,377.12,-9.00,1012.35,1010.50,16.04,15.23,32.690,1.568,103.263,31.823,1012.354,134.400,20.100,62.000,15.075,356.66,2,-9.00,9,-9.00,0.15,15.08,232.63,17.04,280.41
AOML_Explorer,Ex0725N,169.185,18062007,4:26:46,39.147,-72.205,377.74,-9.00,1012.46,1010.50,16.01,15.20,32.649,1.549,103.184,31.819,1012.456,134.900,20.200,62.000,15.025,357.36,2,-9.00,9,-9.00,0.14,15.02,232.74,17.01,280.34
AOML_Explorer,Ex0725N,169.187,18062007,4:29:19,39.137,-72.192,377.49,-9.00,1012.67,1010.50,15.89,15.13,32.657,1.585,103.134,31.812,1012.674,134.500,20.100,66.000,14.911,357.90,2,-9.00,9,-9.00,0.15,14.91,238.30,17.02,279.76
AOML_Explorer,Ex0725N,169.189,18062007,4:31:52,39.127,-72.179,376.71,-9.00,1012.38,1010.50,15.84,15.13,32.635,1.562,103.215,31.808,1012.385,133.300,20.100,66.000,14.735,357.83,2,-9.00,9,-9.00,0.15,14.73,236.16,17.04,279.26
AOML_Explorer,Ex0725N,169.191,18062007,4:34:25,39.118,-72.166,376.10,-9.00,1012.45,1010.50,15.80,15.18,32.622,1.599,103.335,31.802,1012.453,133.600,20.000,67.000,15.381,358.66,2,-9.00,9,-9.00,0.14,15.38,236.28,17.05,278.87
AOML_Explorer,Ex0725N,169.192,18062007,4:36:58,39.108,-72.153,375.67,-9.00,1012.47,1010.40,15.79,15.23,32.646,1.585,103.330,31.793,1012.467,133.900,20.100,70.000,15.868,359.04,2,-9.00,9,-9.00,0.15,15.87,238.99,17.18,279.07
AOML_Explorer,Ex0725N,169.194,18062007,4:39:31,39.098,-72.140,375.52,-9.00,1012.48,1010.50,15.84,15.19,32.684,1.595,102.649,31.787,1012.482,134.200,20.100,70.000,15.393,357.73,2,-9.00,9,-9.00,0.14,15.39,240.27,17.23,279.33
AOML_Explorer,Ex0725N,169.196,18062007,4:42:04,39.088,-72.127,375.77,-9.00,1012.57,1010.40,15.89,15.28,32.681,1.587,103.154,31.778,1012.565,134.100,20.100,68.000,15.467,358.52,2,-9.00,9,-9.00,0.14,15.47,237.48,17.21,279.44
AOML_Explorer,Ex0725N,169.198,18062007,4:44:37,39.079,-72.114,375.82,-9.00,1012.44,1010.50,15.86,15.34,32.760,1.578,102.624,31.772,1012.436,134.100,20.100,68.000,15.892,359.95,2,-9.00,9,-9.00,0.13,15.89,236.01,17.22,279.19
AOML_Explorer,Ex0725N,169.199,18062007,4:47:10,39.069,-72.101,375.29,-9.00,1012.51,1010.60,15.93,15.35,32.810,1.612,102.927,31.763,1012.511,134.300,20.000,68.000,15.495,358.38,2,-9.00,9,-9.00,0.13,15.49,237.26,17.2,279.31
AOML_Explorer,Ex0725N,169.201,18062007,4:49:43,39.059,-72.088,375.24,-9.00,1012.65,1010.60,15.98,15.05,32.925,1.579,102.957,31.755,1012.654,134.200,20.000,68.000,14.712,353.27,2,-9.00,9,-9.00,0.13,14.71,239.66,17.24,279.47
AOML_Explorer,Ex0725N,169.203,18062007,4:52:16,39.049,-72.075,375.02,-9.00,1012.69,1010.70,15.91,15.40,32.813,1.572,102.819,31.747,1012.688,134.000,20.100,67.000,15.724,359.22,2,-9.00,9,-9.00,0.12,15.72,235.19,17.22,278.58
AOML_Explorer,Ex0725N,169.205,18062007,4:54:49,39.039,-72.062,372.51,-9.00,1012.71,1010.50,15.81,15.49,32.999,1.585,102.955,31.740,1012.713,138.200,19.900,66.000,15.892,359.64,2,-9.00,9,-9.00,0.12,15.89,240.20,17.27,277.29
AOML_Explorer,Ex0725N,169.207,18062007,4:57:22,39.029,-72.051,371.76,-9.00,1012.58,1010.80,16.01,15.41,33.195,1.560,102.866,31.729,1012.576,139.600,19.900,69.000,16.796,354.71,2,-9.00,9,-9.00,0.13,16.80,242.74,17.34,276.54
AOML_Explorer,Ex0725N,169.208,18062007,4:59:55,39.018,-72.038,371.65,-9.00,1012.57,1010.60,16.08,15.27,33.244,1.569,102.931,31.728,1012.570,136.300,19.900,71.000,16.328,351.51,2,-9.00,9,-9.00,0.13,16.33,243.65,17.42,276.40
AOML_Explorer,Ex0725N,169.223,18062007,5:21:40,38.933,-71.931,363.46,-9.00,1012.71,1010.80,16.06,15.62,33.270,1.526,103.127,31.757,1012.711,135.200,19.900,71.000,15.581,349.23,2,-9.00,9,-9.00,0.13,15.58,245.27,17.69,278.02
AOML_Explorer,Ex0725N,169.225,18062007,5:24:13,38.923,-71.918,364.93,-9.00,1012.61,1010.80,16.09,15.69,33.284,1.594,103.370,31.757,1012.609,135.300,20.000,72.000,16.209,351.19,2,-9.00,9,-9.00,0.12,16.21,245.14,17.75,276.69
AOML_Explorer,Ex0725N,169.227,18062007,5:26:46,38.913,-71.906,364.83,-9.00,1012.71,1010.80,16.20,15.76,33.391,1.585,103.188,31.754,1012.707,135.100,20.100,73.000,16.830,350.47,2,-9.00,9,-9.00,0.13,16.83,245.06,17.88,276.16
AOML_Explorer,Ex0725N,169.229,18062007,5:29:19,38.903,-71.893,365.34,-9.00,1012.80,1010.80,16.28,15.93,33.508,1.564,103.487,31.749,1012.798,134.700,20.000,74.000,16.167,352.22,2,-9.00,9,-9.00,0.13,16.17,247.67,17.96,274.77
AOML_Explorer,Ex0725N,169.230,18062007,5:31:52,38.893,-71.880,364.72,-9.00,1012.70,1010.70,16.36,16.08,33.613,1.548,103.146,31.745,1012.698,135.000,20.000,72.000,16.173,352.52,2,-9.00,9,-9.00,0.13,16.17,244.88,18.03,273.85
AOML_Explorer,Ex0725N,169.232,18062007,5:34:25,38.883,-71.867,362.72,-9.00,1012.57,1010.60,16.50,16.25,33.635,1.568,103.215,31.738,1012.567,135.200,19.900,77.000,16.619,350.95,2,-9.00,9,-9.00,0.13,16.62,250.24,18.14,272.54
AOML_Explorer,Ex0725N,169.234,18062007,5:36:58,38.873,-71.855,361.43,-9.00,1012.65,1010.50,16.61,16.53,33.698,1.554,103.442,31.730,1012.649,134.900,19.900,78.000,15.923,352.11,2,-9.00,9,-9.00,0.12,15.92,252.51,18.24,271.31
AOML_Explorer,Ex0725N,169.236,18062007,5:39:31,38.863,-71.842,360.62,-9.00,1012.67,1010.60,16.78,16.78,33.749,1.516,103.320,31.723,1012.673,134.400,20.000,79.000,17.397,352.54,2,-9.00,9,-9.00,0.11,17.40,250.00,18.38,269.75
AOML_Explorer,Ex0725N,169.238,18062007,5:42:04,38.853,-71.829,359.47,-9.00,1012.73,1010.70,16.98,17.09,33.931,1.540,103.452,31.719,1012.735,134.500,20.100,72.000,16.294,352.80,2,-9.00,9,-9.00,0.10,16.29,244.99,18.67,267.76
AOML_Explorer,Ex0725N,169.239,18062007,5:44:37,38.843,-71.816,358.89,-9.00,1012.75,1010.70,17.24,17.37,33.984,1.545,103.263,31.714,1012.752,134.600,20.000,79.000,16.306,352.43,2,-9.00,9,-9.00,0.10,16.31,253.78,18.76,266.28
AOML_Explorer,Ex0725N,169.241,18062007,5:47:10,38.833,-71.803,357.96,-9.00,1012.79,1010.40,17.50,17.59,34.214,1.524,103.270,31.710,1012.790,135.100,20.100,83.000,16.833,350.86,2,-9.00,9,-9.00,0.10,16.83,256.76,19.01,264.32
AOML_Explorer,Ex0725N,169.243,18062007,5:49:43,38.823,-71.791,356.23,-9.00,1012.90,1010.60,17.76,17.88,34.233,1.533,103.238,31.702,1012.903,134.500,20.100,77.000,15.886,349.67,2,-9.00,9,-9.00,0.10,15.89,252.17,19.22,262.23
AOML_Explorer,Ex0725N,169.245,18062007,5:52:16,38.813,-71.778,355.31,-9.00,1012.88,1010.70,17.94,18.17,34.417,1.555,103.430,31.697,1012.881,135.100,20.100,76.000,14.158,350.19,2,-9.00,9,-9.00,0.09,14.16,256.94,19.43,260.41